When you browse on this site, cookies collect data to enhance your experience and personalize the content and advertising you see.
Visit our Privacy Policy to learn more. By continuing to use the site, you agree to this use of cookies and data.
  • In United Kingdom
  • List of Countries
  • For 7 days
  • Water Temperature
  • Weather Map
  • Weather Widgets
  • user-avatar
    Login

    Hourly Weather Salvador

    Today, 29 February, Saturday

    Time Temperature Precipitation Wind Pressure Humidity
    00:00 +28°C° 0 mm 3 mps 756 mmHg 84%
    01:00 +28°C° 0.1 mm 3 mps 756 mmHg 85%
    02:00 +27°C° 0.1 mm 3 mps 756 mmHg 85%
    03:00 +27°C° 0.1 mm 3 mps 756 mmHg 85%
    04:00 +27°C° 0.1 mm 3 mps 756 mmHg 85%
    05:00 +27°C° 0.1 mm 3 mps 756 mmHg 85%
    06:00 +27°C° 0.1 mm 4 mps 756 mmHg 84%
    07:00 +28°C° 0.3 mm 4 mps 757 mmHg 80%
    08:00 +29°C° 0.3 mm 5 mps 757 mmHg 75%
    09:00 +30°C° 0.3 mm 5 mps 757 mmHg 71%
    10:00 +30°C° 0.1 mm 5 mps 757 mmHg 67%
    11:00 +32°C° 0.1 mm 5 mps 756 mmHg 63%
    12:00 +32°C° 0.1 mm 5 mps 756 mmHg 60%
    13:00 +32°C° 0 mm 5 mps 755 mmHg 60%
    14:00 +32°C° 0 mm 5 mps 755 mmHg 61%
    15:00 +32°C° 0 mm 5 mps 754 mmHg 61%
    16:00 +30°C° 0 mm 5 mps 754 mmHg 65%
    17:00 +30°C° 0 mm 5 mps 754 mmHg 69%
    18:00 +29°C° 0 mm 5 mps 754 mmHg 73%
    19:00 +29°C° 0 mm 4 mps 755 mmHg 74%
    20:00 +28°C° 0 mm 4 mps 756 mmHg 75%
    21:00 +28°C° 0 mm 4 mps 756 mmHg 77%
    22:00 +28°C° 0 mm 4 mps 756 mmHg 77%
    23:00 +28°C° 0 mm 3 mps 756 mmHg 77%

    Tomorrow, 1 March, Sunday

    Time Temperature Precipitation Wind Pressure Humidity
    00:00 +27°C° 0 mm 3 mps 756 mmHg 78%
    01:00 +27°C° 0 mm 3 mps 756 mmHg 78%
    02:00 +27°C° 0 mm 3 mps 755 mmHg 77%
    03:00 +27°C° 0 mm 3 mps 755 mmHg 77%
    04:00 +27°C° 0 mm 2 mps 755 mmHg 77%
    05:00 +27°C° 0 mm 2 mps 755 mmHg 77%
    06:00 +27°C° 0 mm 2 mps 756 mmHg 77%
    07:00 +28°C° 0 mm 2 mps 756 mmHg 69%
    08:00 +30°C° 0 mm 2 mps 756 mmHg 62%
    09:00 +31°C° 0 mm 1 mps 757 mmHg 54%
    10:00 +31°C° 0 mm 2 mps 756 mmHg 54%
    11:00 +32°C° 0 mm 2 mps 756 mmHg 54%
    12:00 +33°C° 0 mm 3 mps 755 mmHg 53%
    13:00 +33°C° 0 mm 3 mps 755 mmHg 55%
    14:00 +32°C° 0 mm 4 mps 754 mmHg 56%
    15:00 +32°C° 0 mm 5 mps 753 mmHg 58%
    16:00 +30°C° 0 mm 5 mps 753 mmHg 62%
    17:00 +30°C° 0 mm 5 mps 753 mmHg 65%
    18:00 +29°C° 0 mm 5 mps 753 mmHg 69%
    19:00 +29°C° 0 mm 5 mps 754 mmHg 70%
    20:00 +28°C° 0 mm 5 mps 755 mmHg 72%
    21:00 +28°C° 0 mm 5 mps 756 mmHg 73%
    22:00 +28°C° 0 mm 5 mps 756 mmHg 74%
    23:00 +28°C° 0 mm 4 mps 755 mmHg 76%

    Day after tomorrow, 2 March, Monday

    Time Temperature Precipitation Wind Pressure Humidity
    00:00 +27°C° 0 mm 4 mps 755 mmHg 77%
    01:00 +27°C° 0 mm 3 mps 755 mmHg 78%
    02:00 +27°C° 0 mm 3 mps 755 mmHg 79%
    03:00 +27°C° 0 mm 2 mps 754 mmHg 79%
    04:00 +27°C° 0 mm 2 mps 754 mmHg 80%
    05:00 +26°C° 0 mm 2 mps 755 mmHg 80%
    06:00 +26°C° 0 mm 2 mps 755 mmHg 80%
    07:00 +28°C° 0 mm 2 mps 755 mmHg 73%
    08:00 +30°C° 0 mm 1 mps 756 mmHg 65%
    09:00 +31°C° 0 mm 1 mps 756 mmHg 58%
    10:00 +31°C° 0 mm 2 mps 756 mmHg 58%
    11:00 +31°C° 0 mm 2 mps 755 mmHg 58%
    12:00 +33°C° 0 mm 3 mps 755 mmHg 58%
    13:00 +32°C° 0 mm 4 mps 754 mmHg 59%
    14:00 +32°C° 0 mm 4 mps 754 mmHg 60%
    15:00 +32°C° 0 mm 5 mps 753 mmHg 61%
    16:00 +32°C° 0 mm 5 mps 753 mmHg 65%
    17:00 +30°C° 0 mm 5 mps 753 mmHg 69%
    18:00 +29°C° 0 mm 5 mps 753 mmHg 72%
    19:00 +29°C° 0 mm 5 mps 754 mmHg 74%
    20:00 +29°C° 0 mm 5 mps 755 mmHg 75%
    21:00 +29°C° 0 mm 5 mps 755 mmHg 76%
    22:00 +28°C° 0 mm 5 mps 755 mmHg 77%
    23:00 +28°C° 0 mm 5 mps 755 mmHg 78%

    3 March, Tuesday

    Time Temperature Precipitation Wind Pressure Humidity
    00:00 +28°C° 0 mm 4 mps 755 mmHg 79%
    01:00 +28°C° 0 mm 4 mps 755 mmHg 80%
    02:00 +27°C° 0 mm 4 mps 754 mmHg 81%
    03:00 +27°C° 0 mm 3 mps 754 mmHg 83%
    04:00 +27°C° 0.4 mm 3 mps 754 mmHg 83%
    05:00 +27°C° 0.4 mm 3 mps 755 mmHg 84%
    06:00 +26°C° 0.4 mm 2 mps 755 mmHg 85%
    07:00 +28°C° 0.3 mm 2 mps 755 mmHg 77%
    08:00 +29°C° 0.3 mm 2 mps 756 mmHg 68%
    09:00 +31°C° 0.3 mm 1 mps 756 mmHg 60%
    10:00 +31°C° 0 mm 2 mps 756 mmHg 60%
    11:00 +31°C° 0 mm 3 mps 755 mmHg 60%
    12:00 +33°C° 0 mm 3 mps 755 mmHg 60%
    13:00 +33°C° 0 mm 4 mps 754 mmHg 60%
    14:00 +33°C° 0 mm 5 mps 753 mmHg 61%
    15:00 +33°C° 0 mm 5 mps 753 mmHg 61%
    16:00 +32°C° 0 mm 5 mps 753 mmHg 65%
    17:00 +30°C° 0 mm 6 mps 753 mmHg 69%
    18:00 +29°C° 0 mm 6 mps 753 mmHg 72%
    19:00 +29°C° 0 mm 6 mps 754 mmHg 75%
    20:00 +29°C° 0 mm 6 mps 754 mmHg 78%
    21:00 +29°C° 0 mm 6 mps 755 mmHg 81%
    22:00 +28°C° 0 mm 5 mps 755 mmHg 82%
    23:00 +28°C° 0 mm 4 mps 755 mmHg 83%

    4 March, Wednesday

    Time Temperature Precipitation Wind Pressure Humidity
    00:00 +28°C° 0 mm 4 mps 755 mmHg 85%
    01:00 +28°C° 0.2 mm 3 mps 755 mmHg 86%
    02:00 +27°C° 0.2 mm 3 mps 755 mmHg 86%
    03:00 +27°C° 0.2 mm 3 mps 754 mmHg 87%
    04:00 +27°C° 0.4 mm 3 mps 755 mmHg 87%
    05:00 +27°C° 0.4 mm 2 mps 755 mmHg 87%
    06:00 +27°C° 0.4 mm 2 mps 755 mmHg 87%
    07:00 +28°C° 0.5 mm 2 mps 756 mmHg 79%
    08:00 +30°C° 0.5 mm 2 mps 756 mmHg 71%
    09:00 +31°C° 0.5 mm 2 mps 756 mmHg 63%
    10:00 +32°C° 0 mm 2 mps 756 mmHg 63%
    11:00 +32°C° 0 mm 2 mps 755 mmHg 62%
    12:00 +32°C° 0 mm 2 mps 755 mmHg 61%
    13:00 +33°C° 0 mm 3 mps 754 mmHg 63%
    14:00 +33°C° 0 mm 4 mps 754 mmHg 65%
    15:00 +33°C° 0 mm 5 mps 753 mmHg 67%
    16:00 +32°C° 0 mm 6 mps 753 mmHg 71%
    17:00 +32°C° 0 mm 6 mps 753 mmHg 74%
    18:00 +30°C° 0 mm 7 mps 753 mmHg 78%
    19:00 +30°C° 0 mm 7 mps 754 mmHg 78%
    20:00 +29°C° 0 mm 6 mps 754 mmHg 79%
    21:00 +29°C° 0 mm 6 mps 755 mmHg 79%
    22:00 +29°C° 0 mm 6 mps 755 mmHg 80%
    23:00 +29°C° 0 mm 5 mps 755 mmHg 82%

    5 March, Thursday

    Time Temperature Precipitation Wind Pressure Humidity
    00:00 +28°C° 0 mm 4 mps 755 mmHg 83%
    01:00 +28°C° 0.2 mm 4 mps 754 mmHg 84%
    02:00 +28°C° 0.2 mm 4 mps 754 mmHg 86%
    03:00 +27°C° 0.2 mm 3 mps 754 mmHg 87%
    04:00 +27°C° 0.3 mm 3 mps 754 mmHg 87%
    05:00 +27°C° 0.3 mm 3 mps 754 mmHg 87%
    06:00 +27°C° 0.3 mm 3 mps 754 mmHg 87%
    07:00 +28°C° 0.1 mm 3 mps 755 mmHg 81%
    08:00 +30°C° 0.1 mm 2 mps 755 mmHg 74%
    09:00 +31°C° 0.1 mm 2 mps 755 mmHg 67%
    10:00 +31°C° 0.2 mm 2 mps 755 mmHg 67%
    11:00 +32°C° 0.2 mm 2 mps 754 mmHg 67%
    12:00 +32°C° 0.2 mm 2 mps 754 mmHg 67%
    13:00 +33°C° 0.8 mm 3 mps 753 mmHg 68%
    14:00 +33°C° 0.8 mm 4 mps 753 mmHg 70%
    15:00 +33°C° 0.8 mm 5 mps 752 mmHg 71%
    16:00 +32°C° 0.1 mm 5 mps 752 mmHg 73%
    17:00 +32°C° 0.1 mm 5 mps 752 mmHg 75%
    18:00 +30°C° 0.1 mm 5 mps 753 mmHg 78%
    19:00 +30°C° 0.4 mm 5 mps 753 mmHg 79%
    20:00 +30°C° 0.4 mm 5 mps 754 mmHg 80%
    21:00 +29°C° 0.4 mm 5 mps 754 mmHg 82%
    22:00 +29°C° 2.8 mm 4 mps 754 mmHg 85%
    23:00 +28°C° 2.8 mm 3 mps 754 mmHg 88%
    Show more